This demonstration page uses our WeatherBlox Daily Observations layout. Learn more.

Left ArrowRight Arrow

Hourly Observations for May 13, 2019

Temp ( °F °C ) Dew Point ( °F °C ) Humidity (%) Winds ( mph kmh ) Pressure ( in mb ) Visibility ( mi km ) Precip ( " mm )
12:52 am 00:52 Clear 48 8.9 42 5.6 80 80 SSE 6 9 29.93 1013 10 16 0.00 0.00
1:52 am 01:52 Clear 48 8.9 42 5.6 80 80 SSE 6 9 29.93 1014 10 16 0.00 0.00
2:52 am 02:52 Mostly Clear 47 8.3 42 5.6 83 83 SE 5 7 29.93 1014 10 16 0.00 0.00
3:52 am 03:52 Mostly Clear 47 8.3 42 5.6 83 83 SSE 5 7 29.94 1014 10 16 0.00 0.00
4:52 am 04:52 Partly Cloudy 47 8.3 42 5.6 83 83 SE 3 6 29.95 1014 10 16 0.00 0.00
5:52 am 05:52 Partly Cloudy 47 8.3 42 5.6 83 83 SE 3 6 29.97 1015 10 16 0.00 0.00
6:52 am 06:52 Mostly Cloudy 48 8.9 43 6.1 83 83 SE 3 6 29.99 1016 10 16 0.00 0.00
7:52 am 07:52 Mostly Cloudy 49 9.4 44 6.7 83 83 SSE 7 11 29.99 1016 10 16 0.00 0.00
8:52 am 08:52 Mostly Sunny 52 11.1 45 7.2 77 77 SSE 9 15 30.00 1016 10 16 0.00 0.00
9:52 am 09:52 Mostly Sunny 57 13.9 46 7.8 67 67 SE 8 13 29.98 1015 10 16 0.00 0.00
10:52 am 10:52 Partly Cloudy 60 15.6 47 8.3 62 62 S 8 13 29.97 1015 10 16 0.00 0.00
11:52 am 11:52 Partly Cloudy 63 17.2 47 8.3 56 56 S 10 17 29.96 1015 10 16 0.00 0.00
12:52 pm 12:52 Partly Cloudy 64 17.8 48 8.9 56 56 S 13 20 29.94 1014 10 16 0.00 0.00
1:52 pm 13:52 Partly Cloudy 65 18.3 47 8.3 52 52 S 9 15 29.93 1013 10 16 0.00 0.00
2:52 pm 14:52 Partly Cloudy 67 19.4 47 8.3 49 49 SSE 13 20 29.91 1013 10 16 0.00 0.00
3:52 pm 15:52 Partly Cloudy 68 20 48 8.9 49 49 SSE 13 20 29.89 1012 10 16 0.00 0.00
4:52 pm 16:52 Mostly Cloudy 70 21.1 50 10 49 49 S 13 20 29.88 1012 10 16 0.00 0.00
5:52 pm 17:52 Mostly Cloudy 70 21.1 50 10 49 49 S 14 22 29.88 1012 10 16 0.00 0.00
6:52 pm 18:52 Mostly Cloudy 70 21.1 50 10 49 49 SSE 13 20 29.86 1011 10 16 0.00 0.00
7:52 pm 19:52 Mostly Cloudy 69 20.6 51 10.6 53 53 SE 12 19 29.86 1011 10 16 0.00 0.00
8:52 pm 20:52 Partly Cloudy 65 18.3 51 10.6 61 61 SSE 15 24 29.86 1011 10 16 0.00 0.00
9:52 pm 21:52 Cloudy 64 17.8 51 10.6 63 63 SSE 13 20 29.88 1012 10 16 0.00 0.00
10:52 pm 22:52 Cloudy 63 17.2 50 10 63 63 SSE 14 22 29.88 1012 10 16 0.00 0.00
11:52 pm 23:52 Cloudy 61 16.1 50 10 67 67 SSE 14 22 29.88 1012 10 16 0.00 0.00

Powered by AerisWeather